Powrót do katalogu

USA 264

AktywnyMilitariaLEO
NORAD 40964·PAYLOAD·🇺🇸 United States

Wystrzelony Oct 8, 2015 z Vandenberg Space Force Base

Loading…

Następne Przeloty (najbliższe 24 godziny)

TLE

NieaktualneSource: Mike McCants

Epoka: Sep 7, 2026, 00:56 UTC

1 40964U 15058A   26250.03900963 0.00000000  00000-0  00000-0 0    00
2 40964  63.4447 225.2714 0239919 357.9817   2.0183 13.41001364    06

Śledź USA 264 w czasie rzeczywistym z AllMySat

Download on the App Store